Vorticity
4 6 3 15 6 21 17 18 16 10 2 18 14 34 43 1 -48 47 26 -0 5 1 25 -36 30 17 28 14 4 30 0 30 -4 4 8 -6 10 12 -9 4 9 1 6
9 4 12 13 21 13 19 21 24 35 29 41 48 22 -3 61 39 -14 20 19 8 24 -19 35 66 -15 -9 25 3 31 -10 20 -5 -12 -3 21 18 12 1 23 8 20 10
3 -1 3 -5 3 13 34 17 22 13 19 16 14 25 16 31 36 38 15 30 37 30 19 33 24 29 39 40 -18 40 -22 -2 22 -18 16 -3 -2 4 24 26 19 14 12
26 18 17 18 16 25 3 24 14 37 12 30 12 28 18 31 18 16 22 29 24 27 41 19 -14 -10 24 -2 -4 -5 7 13 29 5 21 23 32 26 20 13 10 11 10
8 5 7 10 10 22 27 13 21 5 19 15 11 19 13 24 17 47 15 3 8 12 22 27 21 7 5 -4 17 48 39 23 19 24 23 14 5 9 8 10 12 10 8
8 10 7 5 2 1 2 4 10 9 -3 15 13 13 13 -3 -37 -3 14 38 17 15 19 21 15 7 21 26 19 12 -2 1 17 17 16 17 12 12 9 7 6 5 6
11 5 5 4 3 4 1 5 1 4 9 15 7 16 10 8 21 38 -11 -0 6 25 14 11 20 22 19 23 14 12 13 15 2 9 7 8 16 12 8 6 4 2 4
3 12 15 17 13 12 10 15 17 13 8 12 14 15 5 15 13 26 -7 13 3 9 10 9 21 31 22 8 7 7 3 7 10 7 2 4 2 5 3 3 2 1 6
8 19 16 10 14 17 13 8 5 11 13 19 11 12 13 3 11 -5 9 10 -4 13 4 11 15 -11 13 21 14 27 18 12 10 7 2 0 -0 1 1 3 5 5 6
4 9 9 9 16 16 12 10 16 12 13 21 16 17 19 12 1 12 2 13 10 -11 10 2 6 12 4 12 6 6 3 4 2 4 3 3 3 5 6 3 9 9 19
31 18 9 5 6 7 8 7 12 12 17 15 24 10 20 5 1 11 -2 -7 4 9 0 -1 -3 -0 2 3 3 1 1 3 1 5 -3 -2 7 9 15 8 15 20 17
7 22 38 36 27 27 24 23 17 15 11 23 12 7 6 11 18 9 18 18 9 10 7 6 8 0 1 7 2 4 6 6 7 1 4 12 6 12 15 24 22 20 25
3 5 3 2 8 16 13 11 27 14 17 11 28 8 9 19 15 12 -5 -4 18 14 11 8 10 10 12 5 13 12 10 16 20 18 17 16 23 17 14 24 22 14 5
14 16 12 10 14 12 13 40 10 30 10 9 19 23 4 20 16 27 20 15 15 6 11 14 15 16 10 20 13 6 9 13 13 14 11 12 16 24 24 9 5 7 9
20 25 30 37 60 34 24 26 23 13 20 20 25 9 15 6 11 11 10 14 10 6 5 16 13 6 9 14 16 18 14 10 16 10 7 25 25 8 6 8 9 8 8
25 6 13 18 20 21 16 12 13 15 14 13 17 12 25 5 13 11 6 6 9 14 15 14 6 2 -3 -6 17 16 9 -2 12 29 27 8 7 8 9 8 8 6 7
24 -4 5 5 10 11 12 13 18 20 24 26 20 16 15 22 20 2 13 9 3 12 23 20 17 6 -0 17 21 2 23 45 16 6 9 8 7 8 8 8 9 8 9
12 10 12 21 13 15 -5 36 9 13 17 12 15 16 13 15 17 19 25 20 26 15 6 9 13 18 8 27 39 24 8 7 11 9 8 7 8 7 8 6 8 7 5
13 11 15 11 20 15 20 19 11 5 18 25 23 19 19 18 18 15 14 15 11 17 14 12 30 38 19 6 8 10 10 8 8 6 5 5 9 10 9 7 5 2 4
6 8 10 20 18 10 7 10 24 19 28 39 36 34 24 20 24 27 24 21 18 23 30 16 6 10 11 9 7 7 7 6 6 7 9 10 11 8 7 4 0 3 7
5 7 4 18 8 22 4 11 13 5 8 10 14 17 16 17 19 17 13 11 8 8 10 11 9 7 7 7 7 6 7 7 10 10 10 6 3 4 5 5 4 3 6
5 1 -0 2 13 8 13 10 7 11 10 9 10 10 10 11 12 11 10 9 8 9 8 7 7 7 8 7 7 8 9 9 7 6 5 4 3 3 3 6 9 9 9
6 4 5 6 7 12 9 14 9 7 9 4 2 4 6 6 7 8 9 9 10 8 7 8 8 8 7 8 8 8 5 4 5 4 4 7 8 8 10 10 10 8 8
11 10 9 9 6 11 11 17 16 5 3 -1 1 6 5 6 6 11 12 10 8 8 8 7 6 6 8 6 3 3 3 4 5 8 6 7 8 8 7 10 11 7 4
21 21 18 17 17 9 19 12 14 5 0 -2 10 -1 10 7 8 12 11 7 8 8 7 6 7 7 5 2 4 4 3 4 6 7 7 7 9 9 10 11 5 4 5
14 11 11 14 9 12 11 13 25 12 7 10 7 2 9 9 12 11 7 8 8 8 7 7 6 4 4 4 3 5 5 8 8 4 9 9 11 12 10 7 4 5 8
Height
5581 5579 5577 5575 5571 5570 5571 5571 5570 5573 5572 5572 5572 5577 5579 5582 5588 5589 5592 5594 5596 5600 5602 5604 5604 5608 5616 5621 5628 5634 5638 5640 5645 5645 5650 5650 5652 5653 5654 5655 5655 5654 5655
5565 5563 5560 5557 5556 5555 5554 5554 5554 5553 5554 5557 5557 5560 5561 5564 5568 5570 5571 5574 5574 5578 5581 5582 5585 5594 5600 5603 5612 5615 5622 5626 5628 5631 5631 5633 5635 5636 5639 5638 5639 5639 5639
5548 5546 5545 5543 5542 5543 5541 5538 5537 5538 5540 5543 5541 5542 5545 5547 5550 5551 5555 5558 5559 5561 5563 5570 5572 5576 5579 5586 5597 5599 5605 5609 5611 5613 5615 5617 5619 5620 5621 5622 5623 5624 5625
5531 5529 5528 5527 5526 5528 5528 5525 5524 5523 5524 5526 5528 5529 5533 5533 5535 5534 5534 5536 5543 5545 5548 5554 5556 5563 5567 5573 5577 5582 5587 5591 5594 5597 5597 5602 5602 5604 5606 5608 5609 5609 5610
5516 5515 5514 5514 5512 5512 5512 5512 5511 5511 5512 5515 5517 5518 5522 5522 5523 5521 5521 5525 5531 5534 5537 5541 5544 5548 5552 5556 5562 5568 5572 5575 5577 5578 5583 5587 5589 5591 5593 5593 5594 5594 5595
5500 5500 5499 5497 5497 5498 5497 5498 5499 5500 5501 5503 5505 5507 5508 5513 5512 5513 5511 5512 5519 5523 5526 5530 5534 5537 5541 5545 5551 5555 5560 5561 5565 5568 5571 5574 5575 5577 5578 5580 5581 5581 5583
5482 5483 5482 5481 5482 5483 5483 5484 5486 5488 5489 5491 5493 5495 5498 5502 5500 5503 5503 5507 5509 5511 5516 5520 5523 5527 5531 5535 5538 5542 5546 5549 5554 5556 5559 5561 5563 5566 5567 5569 5569 5568 5569
5467 5466 5465 5465 5467 5468 5468 5468 5470 5472 5475 5478 5481 5483 5486 5490 5492 5492 5493 5497 5501 5504 5507 5510 5513 5517 5520 5524 5529 5531 5534 5537 5541 5545 5547 5550 5551 5552 5553 5553 5553 5552 5551
5450 5450 5450 5450 5451 5452 5454 5453 5454 5457 5459 5464 5468 5470 5474 5478 5482 5482 5482 5486 5491 5494 5499 5501 5504 5506 5508 5511 5514 5518 5522 5525 5528 5532 5534 5537 5537 5537 5537 5536 5534 5532 5530
5433 5431 5433 5434 5435 5436 5438 5439 5440 5441 5444 5449 5454 5457 5461 5464 5468 5472 5473 5477 5480 5484 5489 5491 5492 5494 5497 5500 5503 5506 5510 5512 5516 5518 5520 5520 5521 5520 5518 5516 5514 5513 5511
5414 5414 5416 5417 5418 5420 5422 5424 5425 5427 5429 5433 5438 5443 5446 5450 5454 5460 5464 5467 5468 5471 5477 5479 5482 5484 5487 5489 5491 5494 5498 5501 5504 5505 5505 5505 5504 5502 5500 5500 5498 5496 5493
5405 5402 5401 5401 5402 5404 5406 5408 5410 5412 5415 5419 5423 5427 5431 5436 5442 5447 5452 5455 5457 5462 5465 5469 5471 5473 5475 5479 5480 5483 5485 5487 5489 5490 5490 5490 5489 5487 5486 5484 5481 5479 5478
5395 5394 5393 5391 5390 5390 5392 5393 5395 5398 5401 5405 5409 5413 5418 5423 5429 5435 5440 5440 5445 5451 5454 5456 5459 5462 5463 5467 5468 5469 5472 5473 5474 5475 5476 5476 5474 5472 5471 5468 5466 5466 5465
5386 5383 5381 5378 5376 5377 5378 5378 5382 5384 5388 5392 5396 5401 5406 5410 5417 5421 5426 5430 5434 5438 5442 5446 5448 5450 5451 5453 5456 5459 5460 5461 5462 5463 5462 5462 5460 5460 5457 5456 5455 5453 5451
5377 5375 5371 5365 5361 5364 5367 5368 5371 5375 5378 5381 5385 5390 5396 5402 5407 5409 5413 5419 5423 5427 5432 5435 5436 5438 5441 5444 5446 5447 5448 5450 5450 5450 5451 5451 5449 5449 5446 5445 5444 5440 5438
5372 5370 5366 5362 5360 5361 5362 5363 5365 5367 5369 5372 5376 5381 5385 5391 5396 5400 5403 5408 5413 5418 5421 5425 5427 5428 5430 5432 5434 5436 5437 5438 5439 5439 5440 5439 5438 5437 5435 5434 5432 5428 5424
5367 5366 5363 5361 5360 5359 5359 5360 5360 5361 5362 5365 5367 5371 5375 5380 5385 5390 5395 5400 5405 5408 5411 5415 5416 5418 5420 5422 5424 5426 5426 5427 5428 5429 5428 5427 5427 5426 5425 5421 5418 5413 5409
5363 5362 5361 5359 5357 5356 5356 5356 5355 5356 5356 5358 5360 5363 5367 5371 5376 5381 5386 5392 5396 5399 5402 5404 5406 5407 5410 5412 5413 5416 5418 5417 5420 5420 5419 5417 5417 5415 5412 5408 5406 5401 5397
5360 5359 5358 5356 5355 5353 5353 5353 5352 5351 5351 5351 5353 5355 5358 5361 5366 5372 5377 5382 5386 5390 5393 5396 5397 5399 5401 5405 5407 5408 5409 5408 5411 5412 5409 5408 5406 5404 5401 5399 5393 5388 5383
5358 5357 5356 5354 5353 5353 5352 5351 5349 5349 5347 5346 5346 5350 5353 5357 5361 5365 5370 5374 5378 5382 5385 5388 5391 5394 5396 5399 5400 5400 5401 5403 5404 5402 5400 5398 5396 5393 5389 5385 5380 5374 5367
5356 5355 5354 5353 5353 5352 5351 5351 5351 5350 5350 5350 5350 5352 5355 5358 5361 5365 5369 5373 5377 5380 5383 5385 5387 5390 5392 5394 5395 5395 5395 5394 5394 5392 5390 5388 5385 5381 5377 5371 5365 5359 5351
5353 5352 5352 5351 5351 5351 5351 5351 5351 5352 5352 5353 5354 5356 5358 5361 5363 5366 5368 5371 5374 5377 5379 5381 5383 5385 5386 5387 5387 5387 5386 5385 5384 5383 5380 5376 5372 5368 5363 5357 5349 5342 5334
5348 5348 5348 5348 5348 5348 5349 5349 5350 5351 5353 5354 5355 5357 5359 5360 5362 5364 5367 5368 5370 5372 5374 5376 5377 5378 5379 5379 5379 5379 5378 5377 5375 5372 5368 5364 5359 5354 5347 5340 5332 5325 5317
5341 5342 5342 5342 5343 5344 5345 5346 5347 5349 5350 5352 5354 5356 5357 5358 5360 5361 5363 5365 5366 5368 5369 5370 5371 5372 5372 5372 5372 5371 5369 5367 5364 5360 5355 5350 5345 5338 5331 5323 5316 5308 5299
5334 5334 5335 5335 5336 5337 5339 5341 5342 5344 5346 5348 5350 5352 5353 5355 5355 5357 5358 5359 5361 5362 5363 5364 5365 5366 5366 5365 5363 5361 5359 5355 5352 5347 5341 5336 5329 5322 5315 5307 5299 5290 5280
5327 5328 5328 5329 5330 5331 5333 5334 5336 5338 5341 5343 5345 5346 5348 5349 5350 5351 5353 5354 5355 5356 5357 5358 5358 5358 5357 5355 5353 5351 5348 5344 5338 5333 5327 5321 5314 5306 5299 5290 5281 5271 5261